Home   Weather   Târgu Mureş   Past weeks

Flag for Romania Past Weather in Târgu Mureş, Romania — Yesterday and Last 2 Weeks

Now
54 °F

Clear.


Feels Like: 51 °F
Forecast: 53 / 73 °F
Wind: 8 mph from East

Location: Tirgu Mures Airport

Current Time: May 23, 2017 at 8:20:19 am

Latest Report: May 23, 2017 at 7:30 am


Visibility: N/A

Pressure: 30.07 "Hg

Humidity: 82%

Dew Point: 48 °F

Location of Târgu MureşLocation

Past Weather in Târgu Mureş — Graph

°F

Târgu Mureş Temperature Yesterday

Maximum temperature yesterday: 77 °F (at 5:00 pm)
Minimum temperature yesterday: 54 °F (at 11:30 pm)
Average temperature yesterday: 66 °F

High & Low Weather Summary for the Past Weeks

 TemperatureHumidityPressure
High77 °F (May 19, 6:00 pm)100% (May 8, 9:30 am)30.27 "Hg (May 8, 9:30 am)
Low30 °F (May 11, 6:00 am)29% (May 22, 6:30 pm)29.62 "Hg (May 8, 3:00 pm)
Average59 °F71%29.96 "Hg
* Reported May 8 7:00 am — May 23 7:00 am, Târgu Mureş. Weather by CustomWeather, © 2017

Note: Actual official high and low records may vary slightly from our data, if they occured in-between our weather recording intervals... More about our weather records

Advertising

Târgu Mureş Weather History for the Previous 24 Hours

Scroll right to see more
 ConditionsComfort  
Time TempWeatherWind HumidityBarometerVisibility
7:00 am
Tue, May 23
50 °FScattered clouds.7 mph88%30.04 "HgN/A
6:30 am48 °FCool.6 mph87%30.04 "HgN/A
6:00 am46 °FClear.5 mph93%30.04 "HgN/A
5:30 am46 °FCool.6 mph87%30.04 "HgN/A
5:00 am48 °FPassing clouds.5 mph87%30.04 "HgN/A
4:00 am48 °FClear.7 mph87%30.01 "HgN/A
3:30 am46 °FCool.6 mph93%30.01 "HgN/A
3:00 am48 °FCool.3 mph87%30.01 "HgN/A
2:30 am48 °FCool.5 mph87%30.01 "HgN/A
2:00 am50 °FClear.5 mph88%30.01 "HgN/A
1:30 am52 °FCool.1 mph82%30.01 "HgN/A
1:00 am52 °FCool.6 mph82%30.01 "HgN/A
12:30 am54 °FCool.6 mph77%30.01 "HgN/A
12:00 am54 °FCool.5 mph82%29.98 "HgN/A
11:30 pm
Mon, May 22
54 °FClear.6 mph82%29.98 "HgN/A
11:00 pm55 °FCool.7 mph72%29.98 "HgN/A
10:30 pm61 °FCool.3 mph63%29.95 "HgN/A
10:00 pm63 °FMild.3 mph59%29.95 "HgN/A
9:30 pm61 °FCool.2 mph68%29.95 "HgN/A
9:00 pm66 °FMild.1 mph52%29.92 "HgN/A
8:30 pm70 °FClear.5 mph46%29.92 "HgN/A
8:00 pm73 °FSunny.8 mph36%29.92 "Hg10 mi
7:30 pm75 °FPassing clouds.9 mph34%29.92 "HgN/A
7:00 pm75 °FPassing clouds.8 mph34%29.92 "HgN/A
6:30 pm75 °FPassing clouds.10 mph29%29.92 "HgN/A
6:00 pm75 °FPassing clouds.8 mph36%29.92 "HgN/A
5:30 pm77 °FPassing clouds.9 mph30%29.92 "HgN/A
5:00 pm77 °FPassing clouds.9 mph34%29.92 "HgN/A
4:30 pm75 °FPassing clouds.9 mph31%29.92 "HgN/A
4:00 pm75 °FScattered clouds.9 mph34%29.92 "HgN/A
3:30 pm75 °FScattered clouds.8 mph36%29.92 "HgN/A
3:00 pm75 °FScattered clouds.8 mph34%29.95 "HgN/A
2:30 pm75 °FScattered clouds.8 mph36%29.95 "HgN/A
2:00 pm75 °FScattered clouds.7 mph31%29.95 "HgN/A
1:30 pm73 °FScattered clouds.9 mph36%29.95 "HgN/A
1:00 pm73 °FScattered clouds.12 mph36%29.95 "HgN/A
12:30 pm73 °FScattered clouds.10 mph38%29.95 "HgN/A
12:00 pm72 °FScattered clouds.10 mph47%29.95 "HgN/A
11:30 am70 °FScattered clouds.10 mph50%29.95 "HgN/A
11:00 am70 °FScattered clouds.8 mph57%29.95 "HgN/A
10:30 am68 °FPassing clouds.10 mph60%29.95 "HgN/A
10:00 am68 °FPassing clouds.8 mph64%29.95 "HgN/A
9:30 am66 °FPassing clouds.10 mph68%29.95 "HgN/A
9:00 am63 °FScattered clouds.9 mph77%29.95 "HgN/A
8:30 am63 °FScattered clouds.6 mph77%29.92 "HgN/A
8:00 am61 °FScattered clouds.9 mph83%29.92 "HgN/A
Weather by CustomWeather, © 2017

See weather overviewHow to use our weather pages